EW3966 Weather Reports


Display with metric or nautical units.
time (UTC)temp
F
wind
direction
speed
MPH
gust
MPH
rain 1hr
in
rain 24hr
in
rain mn
in
humidity
%
barometer
mb
20260509082039 46 227 7.0 15.0 0.00 0.00 0.00 97 1000.1
20260509081538 47 243 5.0 13.0 0.00 0.00 0.00 97 1000.0
20260509081038 47 246 5.0 13.0 0.00 0.00 0.00 97 1000.0
20260509080537 47 168 6.0 13.0 0.00 0.00 0.00 97 1000.0
20260509080038 47 223 5.0 12.0 0.00 0.00 0.00 97 999.8
20260509075535 48 228 6.0 12.0 0.00 0.00 0.00 97 999.6
20260509075034 48 207 5.0 11.0 0.00 0.00 0.00 97 999.5
20260509074537 48 249 6.0 11.0 0.00 0.00 0.00 97 999.4
20260509074036 48 213 4.0 10.0 0.00 0.00 0.00 97 999.3
20260509073531 49 204 5.0 13.0 0.00 0.00 0.00 97 999.0
20260509073032 49 236 5.0 13.0 0.00 0.00 0.00 97 999.0
20260509072536 49 195 5.0 11.0 0.00 0.00 0.00 97 999.1
20260509072033 49 278 5.0 11.0 0.00 0.00 0.00 97 999.0
20260509071530 49 218 5.0 13.0 0.00 0.00 0.00 97 999.0
20260509071029 48 238 6.0 13.0 0.00 0.00 0.00 97 998.8
20260509070528 48 259 5.0 13.0 0.00 0.00 0.00 97 998.7
20260509070027 48 236 6.0 13.0 0.00 0.00 0.00 97 998.6
20260509065525 47 224 6.0 10.0 0.00 0.00 0.00 97 998.6
20260509065024 47 243 4.0 11.0 0.00 0.00 0.00 97 998.5
20260509064524 46 241 5.0 12.0 0.00 0.00 0.00 97 998.5
20260509064025 46 241 5.0 12.0 0.00 0.00 0.00 97 998.5
20260509063521 45 259 6.0 11.0 0.00 0.00 0.00 97 998.6
20260509063028 45 274 6.0 11.0 0.00 0.00 0.00 97 998.6
20260509062522 45 249 5.0 11.0 0.00 0.00 0.00 97 998.2
20260509062020 44 253 4.0 11.0 0.00 0.00 0.00 97 998.4
20260509061522 43 242 2.0 11.0 0.00 0.00 0.00 97 998.3
20260509061018 43 297 3.0 7.0 0.00 0.00 0.00 97 997.9
20260509060619 44 324 0.0 6.0 0.00 0.00 0.00 97 997.8
20260509060019 45 55 3.0 6.0 0.00 0.00 0.00 97 997.9
20260509055518 45 235 1.0 8.0 0.00 0.00 0.00 97 997.7
20260509055018 45 286 4.0 8.0 0.00 0.00 0.00 97 997.4
20260509054521 45 265 1.0 8.0 0.00 0.00 0.00 97 997.3
20260509054020 44 284 2.0 6.0 0.00 0.00 0.00 97 997.1
20260509053519 44 247 1.0 6.0 0.00 0.00 0.00 97 997.3
20260509053018 44 241 2.0 6.0 0.00 0.00 0.00 97 997.3
20260509052518 45 178 1.0 6.0 0.00 0.00 0.00 97 997.3
20260509052018 45 228 1.0 6.0 0.00 0.00 0.00 97 997.3
20260509051520 45 182 2.0 9.0 0.00 0.00 0.00 97 997.2
20260509051018 45 245 3.0 9.0 0.00 0.00 0.00 97 997.5
20260509050519 46 163 2.0 10.0 0.00 0.00 0.00 97 997.6
20260509050023 46 145 4.0 11.0 0.00 0.00 0.00 97 997.6
20260509045514 45 177 4.0 11.0 0.00 0.00 0.00 97 997.6
20260509045014 45 229 4.0 13.0 0.00 0.00 0.00 97 997.7
20260509044514 45 182 3.0 10.0 0.00 0.00 0.00 97 997.9
20260509044014 45 162 4.0 13.0 0.00 0.00 0.00 97 998.0
20260509043515 45 327 2.0 11.0 0.00 0.00 0.00 97 997.7
20260509043014 45 183 3.0 11.0 0.00 0.00 0.00 97 997.7
20260509042514 45 233 4.0 11.0 0.00 0.00 0.00 97 997.6
20260509042014 45 144 4.0 12.0 0.00 0.00 0.00 97 997.6
20260509041519 45 174 5.0 11.0 0.00 0.00 0.00 97 997.5
20260509041012 45 139 5.0 15.0 0.00 0.00 0.00 97 997.7
20260509040518 45 201 3.0 15.0 0.00 0.00 0.00 97 998.1
20260509040011 45 203 6.0 13.0 0.00 0.00 0.00 97 998.2
20260509035511 45 167 6.0 14.0 0.00 0.00 0.00 97 998.2
20260509035011 45 135 4.0 14.0 0.00 0.00 0.00 97 998.1
20260509034509 45 150 7.0 14.0 0.00 0.00 0.00 97 998.2
20260509034012 44 86 5.0 13.0 0.00 0.00 0.00 97 998.2
20260509033508 44 62 5.0 13.0 0.00 0.00 0.00 97 998.3
20260509033009 44 231 6.0 13.0 0.00 0.00 0.00 97 998.3
20260509032509 44 75 5.0 13.0 0.00 0.00 0.00 97 998.3
20260509032007 44 85 4.0 9.0 0.00 0.00 0.00 97 998.2
20260509031520 43 161 4.0 10.0 0.00 0.00 0.00 97 998.4
20260509031006 43 101 4.0 14.0 0.00 0.00 0.00 97 998.6
20260509030506 43 22 4.0 14.0 0.00 0.00 0.00 97 998.6
20260509030008 43 107 3.0 11.0 0.00 0.00 0.00 97 998.6
20260509025504 43 147 2.0 11.0 0.00 0.00 0.00 97 998.5
20260509025003 43 102 4.0 11.0 0.00 0.00 0.00 97 998.5
20260509024502 43 77 3.0 11.0 0.00 0.00 0.00 97 998.5
20260509024004 43 183 4.0 10.0 0.00 0.00 0.00 97 998.6
20260509023600 43 157 3.0 9.0 0.00 0.00 0.00 97 998.7
20260509022600 42 166 4.0 9.0 0.00 0.00 0.00 97 998.9
20260509022102 43 146 2.0 7.0 0.00 0.00 0.00 96 999.0
20260509021559 43 151 3.0 6.0 0.00 0.00 0.00 97 999.0
20260509021104 44 124 2.0 7.0 0.00 0.00 0.00 96 999.1
20260509020558 44 222 3.0 8.0 0.00 0.00 0.00 97 999.1
20260509020100 45 162 3.0 11.0 0.00 0.00 0.00 97 999.1
20260509015559 47 80 3.0 11.0 0.00 0.00 0.00 97 999.0
20260509015101 49 63 2.0 10.0 0.00 0.00 0.00 97 999.0
20260509014557 49 158 5.0 10.0 0.00 0.00 0.00 97 999.1
20260509014102 48 60 3.0 6.0 0.00 0.00 0.00 97 999.2
20260509013556 48 244 3.0 10.0 0.00 0.00 0.00 97 999.2
20260509012556 47 155 2.0 8.0 0.00 0.00 0.00 97 999.2
20260509012055 46 149 2.0 7.0 0.00 0.00 0.00 97 999.4
20260509011558 45 151 3.0 7.0 0.00 0.00 0.00 97 999.5
20260509011054 44 90 2.0 8.0 0.00 0.00 0.00 97 999.4
20260509010553 44 155 3.0 8.0 0.00 0.00 0.00 97 999.4
20260509010059 44 35 2.0 8.0 0.00 0.00 0.00 97 999.6
20260509005554 44 97 3.0 7.0 0.00 0.00 0.00 97 999.6
20260509005054 45 120 3.0 7.0 0.00 0.00 0.00 97 999.6
20260509004607 46 104 1.0 12.0 0.00 0.00 0.00 97 999.7
20260509004052 45 300 3.0 12.0 0.00 0.00 0.00 97 999.7
20260509003554 45 124 3.0 11.0 0.00 0.00 0.00 97 999.9
20260509002552 45 126 4.0 12.0 0.00 0.00 0.00 97 1000.1
20260509002052 45 81 3.0 12.0 0.00 0.00 0.00 97 1000.1
20260509001553 44 221 3.0 14.0 0.00 0.00 0.00 97 1000.0
20260509001152 43 335 4.0 14.0 0.00 0.00 0.00 97 1000.1
20260509000554 43 191 3.0 12.0 0.00 0.00 0.00 97 1000.2
20260509000052 43 9 3.0 12.0 0.00 0.00 0.00 97 1000.0
20260508235552 42 149 1.0 5.0 0.00 0.00 0.00 97 1000.1
20260508235053 42 56 1.0 10.0 0.00 0.00 0.00 97 1000.3
20260508234555 42 58 2.0 10.0 0.00 0.00 0.00 97 1000.3
20260508234051 43 70 2.0 7.0 0.00 0.00 0.00 97 1000.3
20260508233552 44 58 3.0 10.0 0.00 0.00 0.00 97 1000.2
20260508232550 44 74 3.0 8.0 0.00 0.00 0.00 97 1000.0
20260508232055 44 137 3.0 11.0 0.00 0.00 0.00 97 999.9
20260508231557 44 178 4.0 11.0 0.00 0.00 0.00 97 999.8
20260508231050 44 197 3.0 10.0 0.00 0.00 0.00 97 1000.0
20260508230552 44 149 2.0 8.0 0.00 0.00 0.00 97 1000.1
20260508230122 44 141 3.0 8.0 0.00 0.00 0.00 97 1000.0
20260508225549 44 69 3.0 8.0 0.00 0.00 0.00 97 1000.1
20260508225053 43 76 3.0 8.0 0.00 0.00 0.00 97 1000.2
20260508224551 43 74 3.0 7.0 0.00 0.00 0.00 97 1000.2
20260508224048 43 93 3.0 7.0 0.00 0.00 0.00 97 1000.1
20260508223548 43 153 2.0 6.0 0.00 0.00 0.00 97 1000.2
20260508222548 42 144 2.0 10.0 0.00 0.00 0.00 97 1000.4
20260508222051 42 318 4.0 11.0 0.00 0.00 0.00 97 1000.5
20260508221548 42 195 4.0 14.0 0.00 0.00 0.00 97 1000.6
20260508221048 43 259 8.0 14.0 0.00 0.00 0.00 97 1000.8
20260508220547 43 290 3.0 7.0 0.00 0.00 0.00 97 1000.3
20260508220113 43 202 1.0 5.0 0.00 0.00 0.00 97 1000.3
20260508215547 43 345 1.0 7.0 0.00 0.00 0.00 97 1000.4
20260508215047 43 170 2.0 9.0 0.00 0.00 0.00 97 1000.4
20260508214549 43 229 1.0 12.0 0.00 0.00 0.00 97 1000.1
20260508214047 43 246 3.0 12.0 0.00 0.00 0.00 97 1000.0
20260508213547 43 239 3.0 11.0 0.00 0.00 0.00 97 1000.4
20260508212546 44 208 5.0 10.0 0.00 0.00 0.00 97 1000.4
20260508212046 44 257 3.0 10.0 0.00 0.00 0.00 97 1000.5
20260508211549 45 230 1.0 8.0 0.00 0.00 0.00 97 1000.4
20260508211049 45 87 2.0 9.0 0.00 0.00 0.00 97 1000.7
20260508210545 46 249 3.0 10.0 0.00 0.00 0.00 97 1000.7
20260508210045 46 224 4.0 14.0 0.00 0.00 0.00 97 1000.8
20260508205544 45 112 6.0 14.0 0.00 0.00 0.00 97 1000.8
20260508205047 45 134 5.0 12.0 0.00 0.00 0.00 97 1000.7
20260508204546 45 239 3.0 15.0 0.00 0.00 0.00 97 1000.8
20260508204046 45 234 6.0 15.0 0.00 0.00 0.00 97 1000.6
20260508203544 44 196 4.0 11.0 0.00 0.00 0.00 97 1000.9
20260508202544 43 149 5.0 12.0 0.00 0.00 0.00 96 1001.1
20260508202046 43 96 4.0 11.0 0.00 0.00 0.00 96 1001.2
20260508201546 43 122 3.0 11.0 0.00 0.00 0.00 97 1001.3
20260508201043 44 92 4.0 10.0 0.00 0.00 0.00 97 1000.7
20260508200543 43 123 4.0 10.0 0.00 0.00 0.00 96 1000.6
20260508200044 43 92 5.0 9.0 0.00 0.00 0.00 96 1000.5
20260508195541 43 45 3.0 9.0 0.00 0.00 0.00 96 1001.0
20260508195041 43 136 4.0 9.0 0.00 0.00 0.00 96 1001.1
20260508194541 43 108 4.0 8.0 0.00 0.00 0.00 96 1001.2
20260508194044 43 85 5.0 11.0 0.00 0.00 0.00 96 1001.1
20260508193545 43 118 5.0 10.0 0.00 0.00 0.00 96 1001.6
20260508192542 44 159 4.0 10.0 0.00 0.00 0.00 96 1001.3
20260508192043 44 114 3.0 7.0 0.00 0.00 0.00 96 1001.1
20260508191541 44 110 2.0 8.0 0.00 0.00 0.00 96 1001.5
20260508191041 44 90 3.0 10.0 0.00 0.00 0.00 96 1001.7
20260508190543 44 90 2.0 8.0 0.00 0.00 0.00 96 1001.5
20260508190050 45 168 3.0 9.0 0.00 0.00 0.00 96 1001.7
20260508185540 45 83 3.0 9.0 0.00 0.00 0.00 96 1001.9
20260508185040 44 68 2.0 9.0 0.00 0.00 0.00 96 1001.4
20260508184548 44 165 3.0 9.0 0.00 0.00 0.00 96 1001.7
20260508184043 44 120 2.0 9.0 0.00 0.00 0.00 96 1001.2
20260508183542 44 73 3.0 9.0 0.00 0.00 0.00 96 1001.5
20260508182539 45 103 2.0 10.0 0.00 0.00 0.00 96 1001.9
20260508182039 46 128 2.0 6.0 0.00 0.00 0.00 96 1002.0
20260508181557 46 99 2.0 7.0 0.00 0.00 0.00 96 1002.0
20260508181038 46 133 2.0 8.0 0.00 0.00 0.00 96 1002.0
20260508180538 45 70 1.0 8.0 0.00 0.00 0.00 96 1002.0
20260508180046 45 186 1.0 8.0 0.00 0.00 0.00 96 1002.1
20260508175538 45 83 2.0 8.0 0.00 0.00 0.00 96 1002.2
20260508175040 46 195 2.0 9.0 0.00 0.00 0.00 96 1002.4
20260508174548 46 120 2.0 9.0 0.00 0.00 0.00 96 1002.4
20260508174037 46 155 5.0 9.0 0.00 0.00 0.00 96 1002.4
20260508173539 47 106 2.0 7.0 0.00 0.00 0.00 96 1002.3
20260508172538 47 103 3.0 7.0 0.00 0.00 0.00 96 1002.5
20260508172038 46 141 3.0 9.0 0.00 0.00 0.00 96 1002.4
20260508171538 46 128 4.0 9.0 0.00 0.00 0.00 96 1002.4
20260508171038 46 133 4.0 8.0 0.00 0.00 0.00 96 1002.6
20260508170537 47 167 3.0 9.0 0.00 0.00 0.00 96 1002.7
20260508170037 47 129 4.0 9.0 0.00 0.00 0.00 96 1002.7
20260508165538 46 254 3.0 6.0 0.00 0.00 0.00 96 1002.5
20260508165036 46 155 2.0 9.0 0.00 0.00 0.00 96 1002.5
20260508164536 47 47 2.0 9.0 0.00 0.00 0.00 96 1002.6
20260508164038 47 60 3.0 9.0 0.00 0.00 0.00 96 1002.6
20260508163539 48 146 4.0 7.0 0.00 0.00 0.00 96 1002.7
20260508162537 48 103 3.0 9.0 0.00 0.00 0.00 97 1002.4
20260508162037 47 72 2.0 6.0 0.00 0.00 0.00 97 1002.3
20260508161538 46 166 2.0 7.0 0.00 0.00 0.00 97 1002.4
20260508161038 46 103 1.0 7.0 0.00 0.00 0.00 96 1002.2
20260508160537 45 116 4.0 8.0 0.00 0.00 0.00 96 1002.2
20260508160036 45 97 4.0 10.0 0.00 0.00 0.00 96 1002.2
20260508155539 45 98 3.0 11.0 0.00 0.00 0.00 96 1002.0
20260508155038 45 136 4.0 11.0 0.00 0.00 0.00 96 1002.1
20260508154536 44 91 2.0 8.0 0.00 0.00 0.00 96 1001.9
20260508154035 44 82 3.0 10.0 0.00 0.00 0.00 96 1001.9
20260508153535 44 181 3.0 12.0 0.00 0.00 0.00 96 1001.7
20260508152535 44 170 5.0 11.0 0.00 0.00 0.00 96 1002.0
20260508152034 44 179 3.0 14.0 0.00 0.00 0.00 96 1001.9
20260508151534 44 75 4.0 14.0 0.00 0.00 0.00 96 1001.9
20260508151034 45 158 4.0 9.0 0.00 0.00 0.00 96 1002.0
20260508150535 45 118 3.0 8.0 0.00 0.00 0.00 96 1002.0
20260508150035 45 177 3.0 7.0 0.00 0.00 0.00 96 1001.9
20260508145532 46 92 2.0 8.0 0.00 0.00 0.00 96 1001.8
20260508145032 46 130 3.0 8.0 0.00 0.00 0.00 96 1002.0
20260508144534 46 166 1.0 9.0 0.00 0.00 0.00 96 1001.9
20260508144032 46 182 3.0 10.0 0.00 0.00 0.00 96 1002.0
20260508143532 46 190 3.0 12.0 0.00 0.00 0.00 96 1002.1
20260508142632 45 187 3.0 10.0 0.00 0.00 0.00 96 1001.9
20260508142034 45 218 4.0 12.0 0.00 0.00 0.00 96 1002.1
20260508141533 45 137 2.0 9.0 0.00 0.00 0.00 96 1002.2
20260508141033 46 201 4.0 9.0 0.00 0.00 0.00 96 1002.1
20260508140531 46 45 1.0 8.0 0.00 0.00 0.00 96 1002.0
20260508140036 46 137 3.0 8.0 0.00 0.00 0.00 96 1002.4
20260508135532 46 62 1.0 10.0 0.00 0.00 0.00 96 1002.4
20260508135031 46 170 3.0 10.0 0.00 0.00 0.00 96 1002.4
20260508134534 46 180 4.0 8.0 0.00 0.00 0.00 96 1002.5
20260508134030 46 149 4.0 10.0 0.00 0.00 0.00 96 1002.6
20260508133530 46 91 3.0 10.0 0.00 0.00 0.00 96 1002.6
20260508132534 46 141 4.0 12.0 0.00 0.00 0.00 96 1002.6
20260508132033 46 117 5.0 12.0 0.00 0.00 0.00 96 1002.5
20260508131532 46 124 3.0 9.0 0.00 0.00 0.00 96 1002.6
20260508131031 46 164 3.0 9.0 0.00 0.00 0.00 96 1002.6
20260508130530 46 140 4.0 12.0 0.00 0.00 0.00 96 1002.3
20260508130030 46 173 6.0 12.0 0.00 0.00 0.00 96 1002.4
20260508125530 46 181 4.0 13.0 0.00 0.00 0.00 96 1002.4
20260508125029 46 157 3.0 9.0 0.00 0.00 0.00 96 1002.7
20260508124529 46 65 3.0 9.0 0.00 0.00 0.00 96 1002.5
20260508124029 46 124 3.0 9.0 0.00 0.00 0.00 96 1002.6
20260508123528 46 135 3.0 10.0 0.00 0.00 0.00 96 1002.6
20260508122532 45 170 5.0 10.0 0.00 0.00 0.00 96 1002.8
20260508122028 44 170 4.0 9.0 0.00 0.00 0.00 96 1002.9
20260508121538 44 215 3.0 9.0 0.00 0.00 0.00 96 1002.7
20260508121027 44 141 2.0 7.0 0.00 0.00 0.00 96 1003.0
20260508120527 44 85 2.0 6.0 0.00 0.00 0.00 96 1002.9
20260508120027 44 180 0.0 8.0 0.00 0.00 0.00 96 1003.0
20260508115527 44 37 3.0 8.0 0.00 0.00 0.00 96 1003.1
20260508115026 44 160 1.0 9.0 0.00 0.00 0.00 96 1003.1
20260508114526 44 149 3.0 9.0 0.00 0.00 0.00 96 1003.3
20260508114029 44 170 3.0 9.0 0.00 0.00 0.00 96 1003.3
20260508113526 45 101 2.0 8.0 0.00 0.00 0.00 96 1003.3
20260508112524 45 66 4.0 8.0 0.00 0.00 0.00 96 1003.3
20260508112024 46 112 3.0 8.0 0.00 0.00 0.00 96 1003.3
20260508111524 46 147 3.0 8.0 0.00 0.00 0.00 96 1003.3
20260508111022 46 125 3.0 9.0 0.00 0.00 0.00 96 1003.4
20260508110523 45 199 4.0 8.0 0.00 0.00 0.00 96 1003.4
20260508110023 45 101 1.0 7.0 0.00 0.00 0.00 96 1003.5
20260508105523 45 128 2.0 7.0 0.00 0.00 0.00 96 1003.5
20260508105023 45 162 1.0 8.0 0.00 0.00 0.00 96 1003.6
20260508104522 46 141 1.0 8.0 0.00 0.00 0.00 96 1003.5
20260508104022 46 139 2.0 6.0 0.00 0.00 0.00 96 1003.5
20260508103522 47 125 2.0 6.0 0.00 0.00 0.00 96 1003.6
20260508102522 48 132 2.0 9.0 0.00 0.00 0.00 96 1003.6
20260508102022 48 157 1.0 9.0 0.00 0.00 0.00 96 1003.7
20260508101522 48 274 1.0 4.0 0.00 0.00 0.00 96 1003.7
20260508101021 48 178 1.0 4.0 0.00 0.00 0.00 96 1003.7
20260508100522 48 320 0.0 5.0 0.00 0.00 0.00 97 1003.7
20260508100025 47 259 1.0 6.0 0.00 0.00 0.00 96 1003.8
20260508095522 47 143 1.0 6.0 0.00 0.00 0.00 96 1003.8
20260508095025 46 101 1.0 5.0 0.00 0.00 0.00 96 1003.8
20260508094522 46 81 0.0 4.0 0.00 0.00 0.00 96 1003.7
20260508094021 46 53 1.0 5.0 0.00 0.00 0.00 96 1003.7
20260508093521 46 93 1.0 5.0 0.00 0.00 0.00 96 1003.8
20260508092522 46 128 2.0 6.0 0.00 0.00 0.00 96 1003.7
20260508092021 46 65 1.0 5.0 0.00 0.00 0.00 96 1003.7
20260508091520 47 59 1.0 6.0 0.00 0.00 0.00 96 1003.7
20260508091021 47 121 1.0 5.0 0.00 0.00 0.00 96 1003.8
20260508090521 48 130 1.0 6.0 0.00 0.00 0.00 96 1003.8
20260508090024 48 113 1.0 6.0 0.00 0.00 0.00 96 1003.8
20260508085519 48 89 1.0 6.0 0.00 0.00 0.00 96 1003.7
20260508085019 48 228 3.0 6.0 0.00 0.00 0.00 96 1003.8
20260508084519 48 216 2.0 7.0 0.00 0.00 0.00 96 1003.9
20260508084018 48 124 3.0 9.0 0.00 0.00 0.00 96 1003.8
20260508083519 49 189 2.0 10.0 0.00 0.00 0.00 96 1003.8
20260508082518 48 58 2.0 8.0 0.00 0.00 0.00 96 1003.9